Wind_Speed
13 14 12 10 8 6 5 3 2 1 2 3 3 4 5 4 3 3 3 4 4 4 5 5 6 7 9 11 12 14 16 16 15 14 14 14 15 16 13 13 15 15 15 17 18 18 18 17 17 17 17 17 17 15 15 17 18 19 19 20 21 19 17
11 12 10 8 7 6 6 5 5 4 3 2 1 1 2 3 3 3 2 2 3 4 4 5 4 4 5 6 8 10 12 14 14 14 13 12 13 13 11 11 13 14 14 14 16 17 17 17 17 16 15 14 14 12 12 13 15 16 17 18 19 19 18
9 10 8 6 6 6 6 6 6 6 5 5 4 2 1 1 2 2 2 2 3 5 6 5 5 4 4 4 4 6 8 10 12 12 11 10 10 10 9 10 12 12 12 12 13 13 14 15 15 15 14 12 12 11 12 13 14 15 15 16 17 17 17
7 8 8 6 6 6 6 5 6 7 7 6 5 4 3 3 2 2 3 3 3 4 5 6 5 4 3 2 2 3 4 6 8 9 10 10 10 9 8 8 9 9 8 9 9 9 10 12 13 13 13 13 14 14 14 16 16 14 13 15 16 17 18
7 6 6 5 4 4 5 6 6 7 7 7 7 7 6 5 5 4 4 4 4 4 5 5 5 5 4 4 3 3 3 3 4 5 7 9 11 11 10 10 10 9 8 8 9 9 10 11 12 13 14 14 15 16 18 19 17 16 15 15 16 16 17
6 4 4 4 3 3 5 6 6 6 6 8 9 10 9 8 8 7 6 6 5 5 5 5 5 4 4 4 4 5 5 5 4 4 4 5 7 9 10 10 11 11 10 10 11 11 12 12 12 13 14 14 15 16 18 19 17 16 16 17 16 16 17
5 3 2 3 3 2 3 4 5 6 6 7 8 10 11 12 11 11 10 9 8 8 7 6 5 5 4 4 4 4 4 4 4 5 5 5 5 5 5 6 6 6 7 7 8 8 8 9 9 10 10 10 11 11 13 15 14 12 13 14 15 15 16
9 7 4 3 2 1 1 3 4 5 6 6 7 8 10 12 13 13 13 13 12 12 11 10 9 8 7 6 5 5 5 4 4 4 4 4 4 4 5 5 5 5 5 5 5 5 5 5 6 6 7 7 7 8 9 11 10 9 10 11 11 11 13
13 11 8 6 4 2 1 1 2 4 4 5 6 6 8 9 10 12 12 13 14 14 14 14 13 12 11 11 10 9 8 8 7 7 6 5 4 3 2 2 3 3 3 3 4 4 4 5 6 6 7 7 8 9 10 11 10 10 10 10 10 11 11
16 14 11 9 7 5 3 2 1 1 1 2 3 4 5 6 7 8 9 10 11 11 12 13 13 13 13 13 12 12 11 11 10 10 9 7 7 5 4 3 2 2 1 1 1 2 2 3 4 4 6 6 7 9 10 11 12 12 13 13 13 13 13
17 16 15 12 10 9 7 5 4 3 2 1 1 2 3 4 4 5 5 5 6 7 7 9 9 10 10 10 10 10 10 10 10 10 10 10 9 8 7 6 6 5 4 4 3 2 2 2 2 2 3 3 4 6 7 9 10 12 13 14 15 15 14
19 18 17 15 14 12 10 9 8 6 4 3 3 3 3 3 3 3 3 3 4 3 3 3 4 4 5 6 6 6 7 7 7 8 8 8 8 8 8 7 6 6 5 4 3 3 3 2 2 2 2 2 3 4 5 7 8 9 11 12 14 15 14
23 20 18 17 16 14 13 12 10 9 7 5 5 4 5 5 6 6 6 6 5 5 4 4 3 2 1 0 2 2 3 4 4 4 4 4 4 5 5 5 4 4 4 4 4 4 3 3 3 3 3 3 3 4 5 7 8 9 10 11 13 14 14
25 21 19 19 17 15 15 13 12 10 8 7 6 6 6 6 6 7 8 9 9 8 8 8 7 7 6 6 5 4 3 2 2 2 2 1 0 1 2 2 2 2 2 3 3 3 3 3 4 4 4 4 5 5 6 7 9 10 11 12 13 15 16
27 23 21 20 18 18 16 14 13 11 9 8 8 8 8 7 7 9 11 12 12 12 11 11 10 10 10 10 9 9 8 7 6 5 5 5 4 4 5 6 6 5 4 4 4 4 4 4 5 5 6 6 6 7 7 8 10 11 12 14 15 17 18
29 28 24 21 19 19 16 15 15 13 11 9 10 11 11 11 12 13 14 15 15 14 14 14 13 13 13 12 12 11 11 10 9 9 9 9 9 8 8 8 9 9 8 8 7 7 7 7 7 7 8 9 9 9 9 10 10 11 13 14 16 17 18
32 30 26 24 22 21 19 16 14 11 10 11 12 13 14 16 18 18 16 16 17 17 17 17 16 15 14 14 13 13 13 12 11 11 10 11 11 10 10 10 10 11 11 11 11 11 11 11 10 10 11 11 11 11 11 11 11 12 12 14 16 17 18
31 26 22 22 21 19 18 15 13 12 12 12 14 16 18 20 21 20 18 17 17 18 20 20 19 17 16 16 16 15 13 12 11 11 12 12 11 11 11 12 12 13 14 14 14 15 16 16 16 15 15 15 14 15 15 15 15 15 14 14 14 16 17
21 17 17 20 20 19 19 18 18 18 15 14 17 19 21 21 20 18 17 16 17 17 19 21 22 21 20 18 18 18 17 15 13 12 12 13 13 12 11 12 13 15 16 17 18 19 20 20 21 20 20 19 18 18 18 19 19 19 19 18 17 16 17
15 15 16 20 21 20 21 21 19 17 15 16 19 21 21 20 18 17 16 16 17 17 15 16 18 20 20 20 20 20 20 19 17 16 15 15 16 16 14 14 15 17 19 21 22 23 23 23 24 24 24 23 22 21 21 21 22 23 23 23 23 21 20
14 15 17 19 20 20 22 22 19 18 18 20 21 22 20 18 17 17 18 18 18 16 15 14 13 14 17 20 21 21 21 20 18 17 16 15 17 18 19 19 19 20 22 23 24 25 25 25 25 26 26 25 25 24 23 24 24 25 26 26 27 26 25
9 10 11 14 15 17 19 20 19 19 20 20 20 20 19 18 18 19 19 19 18 17 16 15 13 13 13 16 18 19 20 20 19 17 17 16 17 18 20 22 22 22 24 25 26 26 27 27 27 27 28 28 27 26 25 25 26 27 28 28 28 29 29
6 6 7 8 10 12 13 14 15 16 16 16 17 18 18 19 19 19 18 17 16 17 16 15 16 16 15 15 16 16 18 19 20 21 21 21 21 21 22 23 24 25 26 28 29 28 28 28 29 29 30 29 29 28 27 27 28 29 29 29 30 31 31
7 7 7 8 9 10 11 12 12 13 14 14 15 16 17 17 17 17 16 16 16 16 17 17 18 18 18 18 19 19 20 21 22 24 24 25 24 25 26 27 27 28 28 29 30 29 30 31 30 30 31 30 30 30 30 30 30 31 32 32 32 32 33
10 10 10 11 11 12 13 13 14 15 15 16 16 17 17 17 18 18 18 18 18 18 18 19 19 19 19 20 21 22 24 25 26 27 28 28 28 28 28 28 29 29 30 31 31 30 32 34 32 32 32 32 31 31 31 31 31 32 34 34 34 33 33
12 12 12 13 14 15 16 16 17 17 17 18 19 19 19 20 20 20 21 21 21 21 21 22 22 22 22 22 23 25 26 27 28 29 30 31 31 31 31 31 30 30 30 31 32 32 35 36 35 34 34 33 32 33 33 32 32 33 34 35 35 34 34
14 14 14 15 15 16 16 17 17 18 18 19 20 21 21 22 22 23 23 24 24 24 24 25 25 26 26 26 27 28 28 29 29 29 30 31 31 31 31 30 30 31 31 32 33 34 36 37 36 36 35 34 33 33 33 33 33 34 35 36 36 35 35
16 16 16 17 17 17 17 17 17 17 18 19 19 20 22 22 23 24 25 26 26 25 25 25 25 25 25 26 27 28 28 28 28 28 28 29 29 29 28 27 28 30 30 31 33 36 37 37 36 36 36 35 34 34 34 34 35 36 37 37 37 37 36
18 18 18 18 18 18 18 18 18 18 18 18 19 20 21 22 23 24 25 25 26 25 24 24 24 24 24 25 26 27 27 26 26 27 27 27 27 27 27 26 28 30 30 31 34 37 38 37 37 37 36 35 35 35 36 36 36 37 37 38 38 38 38
20 19 19 19 19 19 19 19 19 19 19 19 20 21 22 23 24 24 24 24 25 25 25 25 24 25 25 26 26 26 26 26 27 27 28 28 27 26 26 27 28 30 32 33 35 37 38 38 38 38 37 36 36 37 38 38 38 38 38 38 39 39 39
21 21 21 21 22 22 22 22 22 21 21 21 22 23 24 24 25 25 25 25 25 25 25 25 25 25 25 25 25 25 25 25 26 26 27 28 27 27 26 28 29 31 34 35 37 39 39 39 40 39 38 39 39 39 39 39 39 39 39 39 39 40 40
22 22 22 23 23 24 24 23 23 23 23 23 24 24 25 26 26 27 26 26 26 26 26 26 26 26 26 26 26 25 25 25 25 26 26 26 27 27 28 29 31 33 35 37 39 39 40 41 41 41 40 40 40 40 40 40 40 40 40 40 39 39 40
24 25 25 25 25 25 25 25 25 25 25 26 26 26 27 27 28 29 29 28 28 28 28 28 28 29 29 29 28 28 27 27 27 27 28 28 28 29 30 31 32 33 34 36 38 39 40 41 41 41 41 41 41 41 41 41 40 40 39 39 39 39 40
27 28 28 28 27 27 27 26 26 26 26 27 28 28 28 28 28 29 29 30 29 30 30 30 30 30 30 31 31 31 30 30 30 29 29 30 31 31 32 32 32 33 34 36 38 38 39 39 40 41 41 42 41 41 40 39 39 38 38 38 39 40 40
31 31 31 30 29 29 29 28 28 28 28 29 29 29 28 27 26 27 28 29 30 30 30 30 30 30 30 31 31 32 32 33 33 32 31 31 32 33 34 33 34 34 35 36 36 37 37 39 40 42 41 40 39 39 38 38 37 37 38 39 40 40 41
34 33 33 32 32 31 30 29 29 28 29 30 30 30 28 26 25 26 27 28 29 30 31 31 31 31 31 31 31 32 32 33 33 33 33 32 33 34 34 34 34 35 35 35 37 38 38 39 40 40 38 37 37 38 38 38 38 39 39 40 41 41 41
34 33 32 31 31 31 31 30 29 29 29 30 30 30 29 27 27 28 28 29 30 31 31 31 31 31 31 31 31 32 31 32 32 31 32 32 33 34 33 33 34 34 33 34 36 36 35 35 35 35 35 36 37 38 38 39 39 40 40 41 41 42 42
Wind_Direction
348 353 352 4 16 21 24 22 18 345 289 281 274 270 261 246 233 213 204 210 211 205 196 195 206 217 226 230 232 234 234 232 232 234 235 235 238 241 239 239 241 239 236 234 235 235 236 237 238 239 243 248 252 254 256 259 261 260 259 260 259 255 251
343 349 348 2 19 29 35 38 43 46 40 29 9 278 256 239 225 210 190 171 159 156 158 165 181 199 215 225 229 231 231 231 231 233 235 238 242 243 240 237 235 233 234 235 237 240 241 241 240 238 238 240 244 250 254 259 262 262 261 259 257 254 249
331 343 339 350 13 26 32 33 37 40 40 40 42 54 88 167 197 203 182 152 141 137 137 142 153 169 193 212 220 222 225 228 231 233 235 239 242 240 239 238 232 225 223 227 234 240 245 246 243 240 240 241 246 253 256 257 257 255 255 253 249 246 244
313 332 331 338 7 23 24 22 27 32 38 45 50 61 80 108 134 154 156 146 139 134 132 135 141 145 154 167 182 197 209 217 224 227 225 226 231 235 237 242 243 234 220 217 223 230 238 241 242 244 246 249 255 261 262 258 254 255 260 259 252 247 243
289 317 323 333 356 12 20 23 26 29 38 50 58 66 77 92 108 118 125 130 130 129 128 126 127 126 122 117 113 116 130 164 193 209 216 220 229 237 240 242 248 254 252 242 235 234 238 239 238 242 247 250 254 260 262 260 259 262 265 265 261 257 252
266 296 311 320 335 357 22 32 32 29 36 51 61 68 76 83 90 94 95 99 102 105 110 112 116 121 122 120 115 109 110 117 130 149 173 197 216 228 235 239 241 244 248 249 247 243 242 242 240 241 245 247 249 253 258 261 262 262 263 263 264 263 261
219 218 260 290 308 351 27 36 41 39 36 46 60 69 76 80 83 86 86 85 84 83 85 89 95 104 111 116 117 114 112 116 125 137 148 159 174 188 201 216 222 225 229 233 238 236 235 237 236 235 237 237 239 243 250 257 260 259 258 260 264 267 267
183 182 195 227 259 315 38 36 38 46 42 39 48 60 71 77 81 84 86 86 86 85 84 83 82 83 85 87 88 87 86 87 94 103 120 142 160 176 187 199 205 209 218 222 225 225 224 227 225 224 224 225 229 235 242 249 255 255 253 257 262 267 268
177 176 191 207 215 219 207 67 44 47 47 41 41 47 56 66 74 80 84 86 87 87 86 85 82 79 77 75 72 71 70 71 73 75 78 87 103 126 158 193 209 215 233 242 248 252 249 246 244 240 237 234 236 243 249 254 257 257 256 258 259 260 264
186 176 189 205 205 208 218 203 175 88 56 41 42 43 46 53 59 64 74 81 85 87 88 88 86 84 81 78 76 73 71 71 70 70 70 70 72 72 72 69 60 56 41 358 304 287 276 269 264 257 253 248 244 244 249 255 259 262 264 265 265 262 260
198 181 184 200 208 209 214 216 212 213 221 282 356 7 16 35 41 41 48 57 67 79 86 89 91 91 91 88 86 83 80 77 75 75 73 71 70 68 65 62 58 56 52 48 43 27 8 340 311 292 276 266 257 250 250 252 255 260 265 268 269 270 269
211 194 186 197 210 211 215 221 222 226 237 257 276 301 319 330 337 346 355 358 9 24 38 62 84 95 101 102 103 101 97 95 92 89 85 82 80 76 71 67 62 58 51 45 47 44 34 11 340 319 303 286 268 261 258 258 256 257 263 267 269 273 275
218 203 190 198 211 214 219 226 229 234 242 256 270 285 301 309 313 311 307 307 307 306 307 309 308 309 313 321 143 143 140 138 130 117 109 99 90 83 76 70 63 54 40 26 20 16 11 358 346 340 331 318 297 276 266 262 259 255 258 262 267 273 275
223 212 198 202 213 217 222 226 231 237 242 253 265 277 289 296 305 308 305 297 288 283 282 281 284 288 293 296 294 288 280 259 235 206 190 185 67 25 8 3 7 13 1 349 343 335 330 325 323 324 324 317 306 294 284 275 270 264 261 261 263 268 271
226 224 211 206 215 223 224 223 225 231 235 247 259 264 268 271 283 302 304 294 284 277 274 271 272 277 282 286 291 293 291 290 289 288 285 287 295 305 312 313 312 314 313 311 308 303 298 291 286 286 287 284 281 281 279 276 273 270 269 269 267 268 269
227 227 215 207 218 227 227 226 224 224 225 237 252 256 259 268 281 294 294 288 282 273 269 268 269 273 278 280 281 284 285 284 284 287 290 292 294 297 300 303 307 312 313 311 309 304 296 288 283 283 285 282 278 275 272 271 271 270 272 274 274 274 273
229 227 214 208 217 223 224 225 228 233 236 240 248 256 267 279 287 292 288 281 277 268 263 264 265 266 268 269 273 277 279 279 279 280 282 284 286 289 290 292 297 302 305 304 303 301 297 294 293 293 294 293 290 287 284 283 281 280 277 274 274 275 274
226 223 219 219 226 236 240 239 236 236 240 249 258 267 277 284 289 289 284 278 274 266 258 256 258 257 256 257 261 263 264 266 268 271 274 276 277 279 283 288 292 293 293 292 292 293 293 293 293 294 295 295 294 293 292 292 292 290 288 284 280 279 279
226 227 231 230 234 245 253 250 239 234 241 259 271 277 280 282 284 281 276 275 278 274 264 258 256 255 252 252 255 256 253 248 245 250 259 263 262 264 269 279 288 290 288 286 286 288 289 289 290 290 291 291 290 289 289 291 293 294 295 293 290 287 286
229 232 233 235 241 247 253 253 248 247 257 268 272 275 276 277 276 273 273 277 280 280 276 269 263 257 253 253 257 258 252 245 241 243 249 251 252 254 258 267 279 284 283 283 283 284 286 287 289 290 289 289 288 287 287 289 291 293 295 295 293 292 291
234 236 233 239 249 254 258 262 261 261 265 266 267 268 268 267 266 268 275 279 277 274 275 278 276 266 256 253 257 258 252 246 245 247 250 253 252 250 251 260 272 278 279 280 281 283 284 285 288 290 289 287 286 284 284 286 288 290 292 293 293 293 294
234 240 238 240 247 251 255 260 262 262 262 261 260 258 257 258 261 266 271 271 268 266 270 275 277 273 262 253 254 256 253 250 253 256 259 264 264 260 258 262 268 273 276 278 280 282 284 284 286 288 288 286 285 284 283 283 284 285 287 288 290 291 293
220 226 229 232 238 243 247 251 254 256 255 253 252 252 253 257 260 263 263 262 260 261 264 267 267 267 266 261 259 261 259 258 260 263 265 268 271 272 271 271 272 273 276 279 281 282 282 283 285 286 286 286 286 285 284 283 283 283 284 285 286 287 289
233 231 231 233 237 240 242 244 245 247 249 250 250 251 254 256 259 261 262 262 262 262 263 262 262 264 266 267 268 267 266 264 264 265 266 266 268 270 272 274 275 275 276 278 279 281 282 282 282 283 283 285 285 284 282 282 282 283 284 284 285 286 288
245 243 242 244 245 246 246 246 247 248 249 251 253 254 256 258 261 264 266 267 266 266 265 263 263 265 267 270 272 271 269 268 268 269 269 268 268 269 270 272 274 277 279 279 279 281 282 281 282 281 282 283 283 281 279 279 280 281 282 282 283 285 286
255 255 254 255 255 255 255 255 255 255 254 255 256 257 257 258 259 260 261 262 263 265 266 268 269 271 272 272 272 271 271 270 271 271 271 271 271 270 269 271 273 276 278 279 281 281 281 281 282 281 280 282 282 280 278 278 278 277 278 279 280 281 282
261 263 263 264 263 263 264 263 262 262 261 260 260 260 261 260 260 259 259 259 260 263 265 268 270 271 271 270 270 269 270 270 271 270 270 271 272 271 269 270 272 274 276 278 280 280 281 283 284 283 281 282 281 279 278 278 277 276 276 277 278 279 279
260 263 264 266 266 265 265 264 264 264 264 264 263 263 264 264 264 264 263 263 264 266 268 269 269 269 268 266 266 267 268 269 270 269 269 269 270 270 270 269 269 271 273 275 276 278 280 283 283 282 281 281 280 279 278 277 276 275 276 276 277 278 278
254 257 260 263 264 265 265 265 265 265 265 265 265 264 264 265 265 266 267 268 269 269 270 271 271 271 269 268 267 268 268 269 269 269 269 269 269 269 269 268 267 268 269 270 273 277 281 283 283 282 281 280 280 279 278 277 276 276 276 276 277 277 278
249 251 254 257 259 260 261 261 263 264 265 265 265 265 265 265 265 266 267 269 270 270 271 271 271 271 270 271 270 270 270 270 269 269 269 269 268 267 266 266 267 269 271 272 274 277 280 283 284 284 283 283 282 281 280 280 279 278 278 277 277 278 278
249 251 251 251 252 255 257 258 260 263 264 266 266 266 266 266 266 266 266 266 267 267 267 268 268 268 268 270 271 272 272 272 272 272 272 272 271 268 266 266 267 268 271 273 276 278 280 282 284 284 284 285 284 283 282 282 281 280 279 279 279 280 280
251 251 251 250 250 252 254 256 259 261 264 267 268 270 271 271 270 269 267 267 267 267 267 267 267 267 268 270 271 272 274 275 276 276 275 275 275 271 267 265 265 267 268 271 274 277 279 281 283 284 283 283 282 281 280 280 280 280 280 280 280 280 280
254 253 254 255 255 256 257 258 261 264 266 268 269 272 273 274 273 271 269 269 270 271 272 271 271 270 270 270 271 272 274 276 277 277 276 275 274 272 269 267 267 267 268 270 273 276 278 279 280 281 280 278 278 278 278 278 279 280 280 280 279 278 278
252 252 254 256 257 258 260 262 264 266 267 268 270 271 273 273 272 270 269 270 272 274 275 276 276 274 273 272 271 271 272 274 276 277 277 276 274 273 272 271 270 270 271 273 275 276 277 277 277 276 276 277 277 278 279 280 281 281 281 280 280 279 280
246 247 250 253 256 259 262 264 265 266 266 267 268 269 271 272 271 271 270 271 272 273 275 276 277 278 277 275 273 272 271 272 274 275 276 276 275 274 273 272 271 271 272 274 276 276 275 275 276 276 277 279 281 282 283 284 284 283 283 283 283 283 283
246 248 251 255 259 261 263 266 267 267 267 267 268 269 271 274 275 275 274 273 273 273 274 274 276 277 277 276 275 273 271 271 272 273 273 272 271 270 270 271 270 270 271 272 273 274 276 277 278 280 280 281 282 284 285 286 285 285 285 285 286 286 286
250 254 258 261 263 264 265 266 267 267 268 269 270 272 274 276 278 278 278 277 276 275 275 275 275 275 275 275 274 273 273 272 271 271 270 269 267 267 268 268 268 268 268 269 272 277 280 280 281 282 281 282 283 285 285 286 286 286 287 287 288 288 288
Height
3136 3135 3134 3133 3132 3132 3132 3132 3131 3131 3130 3130 3129 3128 3128 3127 3127 3127 3127 3126 3126 3126 3126 3127 3127 3127 3128 3128 3129 3129 3129 3130 3131 3132 3133 3133 3133 3133 3135 3137 3137 3137 3138 3138 3139 3139 3140 3140 3140 3141 3141 3142 3142 3142 3143 3143 3143 3143 3144 3144 3145 3145 3146
3135 3135 3134 3133 3132 3132 3132 3132 3131 3131 3130 3129 3129 3128 3127 3127 3126 3126 3126 3126 3126 3126 3126 3126 3126 3127 3127 3127 3128 3128 3128 3129 3130 3131 3131 3132 3133 3133 3134 3135 3135 3136 3136 3137 3138 3138 3139 3139 3139 3140 3141 3141 3141 3142 3142 3142 3142 3142 3142 3142 3143 3143 3144
3135 3135 3134 3133 3132 3132 3132 3132 3131 3131 3130 3129 3129 3128 3127 3126 3126 3125 3126 3126 3126 3126 3126 3126 3126 3126 3126 3126 3127 3127 3128 3128 3129 3130 3131 3131 3132 3132 3133 3134 3135 3135 3135 3136 3137 3137 3138 3138 3138 3139 3140 3140 3140 3141 3141 3140 3139 3139 3140 3140 3140 3140 3141
3135 3135 3134 3133 3132 3132 3132 3132 3131 3131 3130 3129 3129 3128 3127 3126 3126 3125 3125 3125 3125 3125 3126 3126 3126 3126 3126 3127 3127 3127 3127 3127 3128 3129 3130 3131 3131 3132 3132 3133 3133 3134 3134 3134 3135 3136 3137 3137 3137 3138 3139 3139 3139 3140 3139 3137 3137 3138 3138 3138 3138 3139 3139
3135 3134 3133 3132 3132 3132 3131 3131 3131 3131 3131 3130 3130 3129 3128 3127 3126 3126 3125 3125 3125 3125 3126 3126 3126 3126 3126 3127 3127 3127 3127 3127 3128 3128 3129 3130 3130 3131 3131 3132 3132 3133 3133 3134 3135 3135 3136 3136 3137 3137 3138 3138 3138 3138 3136 3135 3136 3137 3137 3137 3137 3138 3138
3134 3134 3133 3132 3131 3131 3131 3131 3132 3132 3132 3131 3131 3130 3129 3128 3127 3127 3126 3126 3125 3125 3126 3126 3126 3126 3126 3126 3126 3127 3127 3127 3127 3128 3129 3129 3130 3130 3131 3131 3132 3132 3133 3133 3134 3134 3135 3135 3136 3136 3136 3137 3137 3136 3134 3133 3134 3136 3136 3136 3136 3136 3137
3132 3133 3133 3132 3131 3131 3131 3131 3132 3132 3132 3132 3132 3131 3130 3129 3128 3127 3127 3126 3126 3126 3126 3126 3126 3126 3126 3126 3126 3126 3127 3127 3127 3128 3128 3129 3129 3130 3130 3131 3131 3131 3132 3132 3133 3133 3134 3134 3135 3135 3135 3135 3135 3135 3133 3132 3133 3134 3135 3135 3135 3136 3136
3130 3131 3132 3132 3131 3131 3131 3131 3132 3132 3133 3133 3133 3133 3132 3131 3130 3129 3128 3128 3127 3127 3127 3127 3127 3127 3127 3127 3127 3127 3127 3127 3127 3128 3128 3128 3129 3129 3129 3130 3130 3131 3131 3131 3132 3132 3133 3133 3134 3134 3135 3135 3134 3134 3133 3132 3132 3133 3134 3134 3135 3135 3135
3127 3129 3131 3131 3131 3131 3131 3131 3132 3132 3133 3134 3134 3134 3133 3132 3132 3131 3130 3129 3129 3128 3128 3128 3128 3128 3128 3128 3128 3128 3128 3128 3128 3128 3128 3128 3129 3129 3129 3129 3130 3130 3130 3131 3131 3131 3132 3132 3133 3133 3134 3134 3134 3133 3132 3132 3132 3132 3133 3133 3134 3134 3134
3125 3126 3129 3130 3131 3131 3131 3131 3132 3133 3133 3134 3134 3134 3134 3133 3133 3132 3132 3131 3131 3130 3129 3129 3129 3129 3129 3129 3129 3129 3129 3129 3129 3129 3129 3129 3129 3129 3129 3129 3130 3130 3130 3130 3131 3131 3131 3131 3131 3132 3132 3132 3132 3132 3132 3132 3132 3132 3132 3132 3133 3133 3133
3124 3124 3126 3129 3130 3131 3131 3131 3132 3133 3134 3134 3134 3134 3134 3134 3134 3133 3133 3132 3132 3131 3131 3131 3130 3130 3130 3130 3130 3130 3130 3130 3130 3130 3130 3130 3130 3130 3130 3130 3130 3130 3130 3131 3131 3131 3131 3131 3131 3131 3131 3131 3131 3131 3131 3131 3131 3131 3131 3131 3131 3131 3131
3123 3123 3124 3126 3128 3130 3131 3131 3132 3133 3133 3134 3134 3134 3134 3133 3133 3133 3133 3133 3133 3132 3132 3132 3131 3131 3131 3131 3131 3131 3131 3131 3131 3131 3131 3131 3131 3131 3130 3130 3130 3130 3130 3131 3131 3131 3131 3131 3131 3131 3131 3131 3131 3131 3131 3131 3131 3131 3130 3130 3130 3129 3130
3121 3121 3122 3124 3127 3129 3130 3131 3132 3132 3133 3134 3134 3134 3134 3133 3133 3133 3133 3133 3133 3133 3132 3132 3132 3132 3132 3132 3132 3131 3131 3131 3131 3131 3131 3131 3131 3131 3131 3131 3131 3130 3130 3130 3130 3130 3130 3130 3130 3130 3130 3130 3130 3130 3130 3130 3130 3130 3130 3130 3129 3128 3128
3119 3120 3121 3123 3125 3127 3128 3130 3131 3132 3132 3133 3133 3133 3133 3133 3133 3132 3132 3132 3132 3132 3132 3132 3132 3132 3132 3132 3132 3132 3132 3131 3131 3131 3131 3131 3131 3131 3130 3130 3130 3130 3130 3130 3129 3129 3129 3129 3129 3129 3129 3129 3129 3129 3129 3129 3128 3128 3128 3128 3128 3127 3127
3116 3117 3119 3121 3123 3125 3126 3127 3128 3129 3130 3131 3132 3132 3131 3131 3131 3131 3131 3131 3131 3131 3131 3131 3131 3131 3131 3131 3131 3131 3131 3131 3131 3131 3130 3130 3130 3130 3129 3129 3129 3129 3129 3129 3129 3128 3128 3128 3128 3128 3128 3128 3128 3127 3127 3127 3127 3127 3127 3126 3126 3126 3125
3112 3113 3115 3118 3120 3122 3123 3124 3124 3125 3126 3128 3129 3129 3128 3128 3129 3129 3129 3129 3129 3129 3129 3130 3130 3130 3130 3130 3130 3130 3130 3130 3130 3130 3130 3129 3129 3129 3128 3128 3128 3127 3127 3127 3127 3127 3127 3126 3126 3126 3126 3126 3126 3126 3126 3126 3125 3125 3125 3124 3124 3124 3123
3108 3110 3112 3114 3117 3119 3120 3121 3121 3121 3123 3125 3126 3126 3126 3126 3126 3126 3126 3126 3126 3127 3127 3128 3128 3128 3128 3128 3128 3128 3128 3129 3129 3129 3128 3128 3128 3128 3128 3127 3127 3126 3126 3126 3125 3125 3125 3124 3124 3124 3124 3124 3124 3124 3123 3123 3123 3123 3123 3122 3122 3121 3121
3106 3108 3111 3113 3115 3116 3117 3118 3118 3118 3119 3121 3123 3123 3124 3124 3123 3123 3123 3123 3123 3123 3124 3125 3125 3126 3126 3126 3126 3126 3127 3127 3127 3127 3127 3127 3127 3126 3126 3126 3126 3125 3125 3124 3123 3123 3123 3122 3122 3122 3122 3122 3121 3121 3121 3120 3120 3120 3120 3120 3119 3118 3118
3107 3109 3110 3111 3111 3112 3113 3113 3113 3112 3114 3117 3119 3119 3120 3120 3120 3120 3120 3120 3120 3120 3120 3121 3122 3123 3123 3123 3124 3124 3124 3124 3124 3125 3125 3125 3125 3125 3125 3124 3124 3124 3123 3122 3121 3121 3121 3120 3120 3119 3119 3119 3118 3118 3117 3117 3117 3116 3116 3116 3116 3116 3115
3106 3107 3108 3108 3108 3107 3108 3108 3108 3109 3110 3113 3115 3116 3116 3117 3117 3117 3117 3116 3116 3116 3117 3117 3118 3119 3119 3120 3120 3121 3121 3121 3122 3122 3122 3122 3123 3123 3123 3123 3122 3122 3121 3120 3120 3119 3118 3118 3117 3117 3116 3116 3115 3115 3114 3113 3113 3113 3112 3112 3112 3112 3112
3103 3104 3105 3106 3105 3106 3106 3106 3106 3107 3109 3111 3113 3113 3114 3114 3114 3114 3114 3114 3114 3114 3114 3114 3115 3115 3115 3116 3117 3118 3118 3118 3118 3119 3119 3119 3120 3120 3121 3120 3120 3119 3118 3118 3117 3116 3116 3115 3114 3114 3113 3113 3112 3111 3111 3110 3109 3108 3108 3107 3107 3107 3107
3101 3102 3103 3104 3105 3105 3106 3106 3106 3107 3108 3110 3111 3111 3111 3111 3111 3111 3111 3111 3111 3111 3112 3112 3112 3112 3113 3113 3113 3114 3114 3115 3115 3116 3116 3116 3116 3117 3117 3117 3117 3116 3115 3114 3114 3113 3113 3112 3111 3110 3110 3109 3109 3108 3108 3107 3106 3105 3104 3103 3103 3102 3102
3100 3101 3102 3103 3104 3104 3105 3106 3106 3106 3107 3108 3108 3109 3109 3109 3109 3109 3109 3109 3109 3109 3109 3110 3110 3110 3110 3110 3111 3111 3111 3112 3112 3112 3112 3112 3113 3113 3113 3113 3113 3113 3112 3111 3110 3110 3109 3109 3108 3107 3106 3106 3105 3105 3104 3103 3102 3101 3100 3099 3099 3098 3097
3099 3100 3100 3101 3102 3103 3104 3104 3105 3105 3106 3106 3107 3107 3107 3107 3107 3107 3107 3107 3107 3107 3107 3107 3107 3107 3108 3108 3108 3108 3109 3109 3109 3109 3109 3109 3109 3109 3109 3109 3109 3108 3108 3107 3106 3105 3105 3104 3104 3103 3103 3102 3102 3101 3100 3099 3098 3097 3096 3095 3094 3093 3092
3097 3098 3099 3099 3100 3101 3101 3102 3103 3103 3104 3104 3104 3105 3105 3105 3105 3104 3104 3104 3104 3104 3104 3105 3105 3105 3105 3106 3105 3105 3105 3105 3105 3105 3105 3105 3105 3105 3105 3104 3104 3104 3103 3103 3102 3101 3100 3100 3099 3099 3098 3098 3098 3097 3096 3095 3094 3093 3091 3090 3090 3090 3088
3094 3095 3096 3097 3097 3098 3098 3099 3100 3100 3101 3101 3101 3101 3101 3102 3102 3102 3102 3101 3101 3101 3101 3102 3102 3102 3103 3102 3102 3101 3101 3101 3101 3101 3101 3101 3101 3101 3100 3100 3100 3100 3099 3098 3098 3097 3096 3095 3095 3094 3093 3093 3093 3092 3091 3090 3089 3088 3087 3086 3085 3085 3084
3091 3092 3093 3093 3094 3094 3095 3095 3096 3096 3097 3097 3097 3097 3098 3098 3098 3098 3098 3098 3098 3098 3098 3098 3099 3099 3099 3098 3097 3097 3097 3097 3097 3097 3096 3096 3096 3096 3096 3096 3096 3096 3095 3095 3094 3093 3092 3091 3091 3090 3089 3089 3088 3088 3087 3086 3084 3083 3082 3081 3080 3080 3079
3088 3089 3090 3090 3091 3091 3092 3092 3092 3093 3093 3093 3094 3094 3094 3093 3093 3093 3093 3093 3094 3094 3095 3095 3094 3094 3094 3093 3093 3093 3093 3093 3093 3092 3092 3092 3092 3092 3092 3092 3092 3092 3091 3091 3089 3088 3088 3087 3086 3085 3084 3084 3083 3083 3082 3081 3079 3078 3077 3076 3075 3074 3074
3086 3086 3087 3087 3088 3088 3088 3089 3089 3089 3089 3090 3090 3090 3090 3089 3089 3089 3089 3090 3090 3090 3091 3091 3090 3090 3089 3089 3089 3089 3089 3089 3089 3088 3088 3088 3088 3088 3088 3088 3088 3087 3087 3086 3085 3085 3084 3083 3082 3081 3080 3079 3078 3078 3076 3075 3074 3073 3072 3071 3070 3069 3068
3083 3084 3084 3085 3085 3085 3085 3085 3085 3086 3086 3086 3086 3086 3086 3085 3086 3086 3086 3086 3086 3087 3087 3087 3087 3086 3086 3085 3085 3085 3085 3085 3085 3085 3084 3084 3084 3084 3084 3084 3083 3083 3082 3082 3081 3080 3079 3078 3077 3076 3075 3074 3073 3072 3070 3069 3068 3068 3067 3066 3064 3063 3062
3079 3080 3081 3082 3082 3082 3082 3082 3082 3082 3082 3082 3082 3082 3082 3082 3082 3082 3083 3083 3083 3083 3083 3083 3083 3083 3083 3082 3082 3081 3081 3081 3081 3080 3080 3080 3080 3080 3079 3079 3079 3079 3078 3078 3076 3075 3075 3074 3072 3071 3070 3068 3067 3066 3065 3064 3063 3062 3061 3060 3059 3058 3056
3075 3076 3077 3077 3078 3078 3078 3078 3078 3078 3078 3078 3078 3078 3078 3078 3078 3078 3079 3079 3079 3079 3079 3079 3079 3079 3079 3079 3078 3078 3077 3077 3077 3076 3076 3076 3075 3075 3075 3075 3075 3074 3074 3073 3072 3071 3070 3069 3067 3066 3065 3063 3062 3061 3060 3059 3058 3057 3056 3055 3054 3052 3051
3071 3071 3072 3072 3073 3073 3074 3074 3074 3074 3074 3074 3074 3074 3074 3074 3074 3074 3074 3074 3074 3074 3075 3075 3075 3075 3075 3075 3074 3074 3074 3073 3073 3072 3072 3072 3071 3071 3071 3070 3070 3070 3069 3068 3067 3066 3065 3064 3062 3061 3060 3058 3057 3056 3055 3054 3053 3052 3051 3050 3048 3047 3046
3066 3066 3067 3067 3068 3068 3069 3069 3070 3070 3070 3070 3070 3069 3069 3069 3070 3070 3070 3070 3070 3070 3070 3070 3070 3070 3070 3070 3070 3070 3069 3069 3068 3068 3067 3067 3067 3066 3066 3066 3065 3065 3064 3063 3062 3061 3060 3058 3057 3055 3054 3053 3052 3051 3050 3050 3048 3047 3045 3044 3042 3041 3040
3061 3062 3062 3062 3063 3064 3064 3065 3065 3065 3065 3065 3065 3065 3065 3065 3066 3066 3066 3066 3065 3065 3065 3065 3065 3064 3064 3064 3064 3064 3064 3064 3064 3063 3063 3062 3062 3062 3061 3061 3060 3060 3059 3058 3057 3055 3054 3053 3051 3050 3049 3048 3047 3046 3045 3043 3042 3041 3039 3038 3036 3035 3034
3057 3057 3058 3058 3059 3059 3060 3060 3060 3060 3060 3060 3060 3060 3060 3061 3062 3062 3061 3061 3061 3060 3060 3060 3060 3060 3059 3059 3059 3059 3059 3059 3058 3058 3058 3058 3057 3057 3056 3056 3056 3055 3054 3052 3051 3050 3049 3048 3046 3045 3044 3043 3041 3040 3039 3037 3036 3034 3033 3031 3030 3029 3027
3053 3053 3054 3054 3054 3055 3055 3055 3055 3055 3055 3055 3055 3055 3056 3057 3057 3057 3057 3056 3056 3055 3055 3055 3055 3055 3054 3054 3054 3054 3053 3053 3053 3053 3053 3052 3052 3051 3051 3051 3050 3049 3048 3047 3046 3045 3044 3043 3042 3040 3039 3038 3036 3035 3033 3032 3030 3028 3027 3025 3023 3022 3020